TIANMU-1 12

Last updated on Sat Aug 15 2026 00:02:41 GMT+0000 (Coordinated Universal Time)

1 58646U 23205B 26226.60572399 .00002906 00000+0 11173-3 0 9992 2 58646 97.3432 246.9931 0008975 133.0491 227.1502 15.27177085146422
UTC large
Height (km)
Speed (km/s)
/
Latitude / Longitude
Inclination (degrees)
Orbital Period (minutes)
Azimuth
Elevation
Range (km)
Doppler Factor

Next 0 passes for location: London (51.5072 / 0.1276)

No passes found over London.
TIANMU-1 12